SCP
0 0 0 0 0 0 0 0 0 0 0 0 0 0 0 0 0 0 0 0 0 0 0 0 0 0 0 0 0 0 0 0 0 0 0 0 0 0 0 0 0 0 0 0
0 0 0 0 0 0 0 0 0 0 0 0 0 0 0 0 0 0 0 0 0 0 0 0 0 0 0 0 0 0 0 0 0 0 0 0 0 0 0 0 0 0 0 0
0 0 0 0 0 0 0 0 0 0 0 0 0 0 0 0 0 0 0 0 0 0 0 0 0 0 0 0 0 0 0 0 0 0 0 0 0 0 0 0 0 0 0 0
0 0 0 0 0 0 0 0 0 0 0 0 0 0 0 0 0 0 0 0 0 0 0 0 0 0 0 0 0 0 0 0 0 0 0 0 0 0 0 0 0 0 0 0
0 0 0 0 0 0 0 0 0 0 0 0 0 0 0 0 0 0 0 0 0 0 0 0 0 0 0 0 0 0 0 0 0 0 0 0 0 0 0 0 0 0 0 0
0 0 0 0 0 0 0 0 0 0 0 0 0 0 0 0 0 0 0 0 0 0 0 0 0 0 0 0 0 0 0 0 0 0 0 0 0 0 0 0 0 0 0 0
0 0 0 0 0 0 0 0 0 0 0 0 0 0 0 0 0 0 0 0 0 0 0 0 0 0 0 0 0 0 0 0 0 0 0 0 0 0 0 0 0 0 0 0
0 0 0 0 0 0 0 0 0 0 0 0 0 0 0 0 0 0 0 0 0 0 0 0 0 0 0 0 0 0 0 0 0 0 0 0 0 0 0 0 0 0 0 0
0 0 0 0 0 0 0 0 0 0 0 0 0 0 0 0 0 0 0 0 0 0 0 0 0 0 0 0 0 0 0 0 0 0 0 0 0 0 0 0 0 0 0 0
0 0 0 0 0 0 0 0 0 0 0 0 0 0 0 0 0 0 0 0 0 0 0 0 0 0 0 0 0 0 0 0 0 0 0 0 0 0 0 0 0 0 0 0
0 0 0 0 0 0 0 0 0 0 0 0 0 0 0 0 0 0 0 0 0 0 0 0 0 0 0 0 0 0 0 0 0 0 0 0 0 0 0 0 0 0 0 0
0 0 0 0 0 0 0 0 0 0 0 0 0 0 0 0 0 0 0 0 0 0 0 0 0 0 0 0 0 0 0 0 0 0 0 0 0 0 0 0 0 0 0 0
0 0 0 0 0 0 0 0 0 0 0 0 0 0 0 0 0 0 0 0 0 0 0 0 0 0 0 0 0 0 0 0 0 0 0 0 0 0 0 0 0 0 0 0
0 0 0 0 0 0 0 0 0 0 0 0 0 0 0 0 0 0 0 0 0 0 0 0 0 0 0 0 0 0 0 0 0 0 0 0 0 0 0 0 0 0 0 0
0 0 0 0 0 0 0 0 0 0 0 0 0 0 0 0 0 0 0 0 0 0 0 0 0 0 0 0 0 0 0 0 0 0 0 0 0 0 0 0 0 0 0 0
0 0 0 0 0 0 0 0 0 0 0 0 0 0 0 0 0 0 0 0 0 0 0 0 0 0 0 0 0 0 0 0 0 0 0 0 0 0 0 0 0 0 0 0
0 0 0 0 0 0 0 0 0 0 0 0 0 0 0 0 0 0 0 0 0 0 0 0 0 0 0 0 0 0 0 0 0 0 0 0 0 0 0 0 0 0 0 0
0 0 0 0 0 0 0 0 0 0 0 0 0 0 0 0 0 0 0 0 0 0 0 0 0 0 0 0 0 0 0 0 0 0 0 0 0 0 0 0 0 0 0 0
0 0 0 0 0 0 0 0 0 0 0 0 0 0 0 0 0 0 0 0 0 0 0 0 0 0 0 0 0 0 0 0 0 0 0 0 0 0 0 0 0 0 0 0
0 0 0 0 0 0 0 0 0 0 0 0 0 0 0 0 0 0 0 0 0 0 0 0 0 0 0 0 0 0 0 0 0 0 0 0 0 0 0 0 0 0 0 0
0 0 0 0 0 0 0 0 0 0 0 0 0 0 0 0 0 0 0 0 0 0 0 0 0 0 0 0 0 0 0 0 0 0 0 0 0 0 0 0 0 0 0 0
0 0 0 0 0 0 0 0 0 0 0 0 0 0 0 0 0 0 0 0 0 0 0 0 0 0 0 0 0 0 0 0 0 0 0 0 0 0 0 0 0 0 0 0
0 0 0 0 0 0 0 0 0 0 0 0 0 0 0 0 0 0 0 0 0 0 0 0 0 0 0 0 0 0 0 0 0 0 0 0 0 0 0 0 0 0 0 0
0 0 0 0 0 0 0 0 0 0 0 0 0 0 0 0 0 0 0 0 0 0 0 0 0 0 0 0 0 0 0 0 0 0 0 0 0 0 0 0 0 0 0 0
0 0 0 0 0 0 0 0 0 0 0 0 0 0 0 0 0 0 0 0 0 0 0 0 0 0 0 0 0 0 0 0 0 0 0 0 0 0 0 0 0 0 0 0
0 0 0 0 0 0 0 0 0 0 0 0 0 0 0 0 0 0 0 0 0 0 0 0 0 0 0 0 0 0 0 0 0 0 0 0 0 0 0 0 0 0 0 0
0 0 0 0 0 0 0 0 0 0 0 0 0 0 0 0 0 0 0 0 0 0 0 0 0 0 0 0 0 0 0 0 0 0 0 0 0 0 0 0 0 0 0 0
Wind_Speed_500mb
38 9 12 14 26 40 46 61 29 58 49 39 28 24 36 37 39 54 67 78 88 92 96 99 104 102 98 96 91 86 82 77 72 64 59 56 52 49 46 44 42 40 38 36
37 31 19 14 24 48 51 51 51 59 65 13 33 39 34 55 59 69 75 84 88 87 90 97 102 103 102 100 94 89 84 80 74 66 63 59 55 53 50 48 48 46 43 40
38 22 15 16 71 41 37 41 44 51 75 17 33 31 38 55 67 79 84 85 87 90 89 88 91 96 101 96 91 88 85 83 76 70 66 62 59 57 55 55 52 50 49 45
24 14 24 29 12 52 57 58 46 49 57 18 38 64 79 74 73 79 82 79 79 79 79 80 79 79 76 78 80 82 86 83 78 74 68 65 61 58 57 56 54 54 52 48
13 25 18 33 11 18 28 57 54 58 59 61 41 25 30 54 71 75 75 75 70 67 63 61 59 56 55 61 61 70 77 80 77 73 68 63 63 61 60 55 56 56 51 49
11 16 26 13 1 4 11 42 30 46 52 47 30 20 39 53 44 53 46 46 48 46 42 39 39 43 46 56 59 62 65 64 66 62 57 58 58 55 52 53 52 50 50 48
35 23 10 9 9 6 18 14 7 5 30 27 20 39 28 36 45 47 51 50 46 42 34 35 42 47 56 54 51 45 48 51 51 52 52 48 47 48 49 50 50 50 50 49
17 13 21 14 3 17 5 7 11 8 10 32 34 20 31 54 54 47 45 45 42 39 39 37 36 37 42 44 38 39 39 41 44 44 43 42 42 44 47 49 50 49 51 51
14 9 9 33 11 16 5 2 2 2 6 23 27 28 38 46 45 43 36 36 34 36 39 36 34 33 35 32 34 36 38 40 40 40 39 37 39 41 44 45 49 52 56 57
4 5 4 12 13 17 15 12 8 5 4 18 24 24 28 36 40 42 40 38 36 34 35 38 35 31 27 27 29 33 34 35 38 42 41 38 38 41 44 48 52 55 59 62
7 6 7 22 29 25 18 7 7 9 12 19 20 24 29 35 38 38 38 37 35 36 34 31 28 27 27 28 29 32 35 40 46 47 46 43 43 44 46 48 51 56 59 57
9 18 8 8 44 35 34 22 14 11 12 11 14 20 28 36 40 41 41 41 39 35 31 29 29 32 34 33 33 35 38 42 49 53 50 49 48 48 51 55 58 59 58 56
8 26 24 10 12 44 40 30 15 10 3 6 15 20 32 41 40 38 39 37 34 30 30 30 31 34 36 36 35 36 37 39 45 51 54 55 55 56 56 55 54 48 44 44
9 19 18 13 1 21 34 26 15 8 8 14 19 29 32 32 33 34 36 37 35 32 31 31 33 35 36 37 38 38 38 40 42 45 51 55 55 53 49 43 38 37 41 45
13 16 3 10 10 9 21 19 16 14 15 24 25 21 19 21 25 31 36 38 37 35 35 34 35 37 38 38 37 37 39 41 43 44 46 45 42 38 35 34 35 39 42 42
17 16 16 16 19 17 15 15 12 14 21 23 20 17 19 24 29 34 39 42 41 38 37 37 39 40 39 37 36 38 40 43 42 39 36 33 31 31 32 35 37 39 41 45
19 16 18 19 18 18 16 15 15 14 14 14 15 19 22 25 32 37 41 42 42 41 39 39 38 39 38 37 37 37 36 35 33 30 29 29 30 32 34 35 36 38 40 42
16 16 13 13 15 17 14 10 9 9 11 13 15 19 23 26 30 35 40 41 39 37 35 36 37 38 37 35 33 32 30 29 28 27 27 29 30 31 32 33 35 36 37 38
6 8 9 9 9 9 9 9 9 11 13 14 17 19 22 24 25 27 31 34 35 36 36 35 36 34 32 31 29 28 27 26 26 26 27 28 29 30 32 33 33 35 36 35
3 5 6 7 8 9 10 10 11 12 13 14 16 18 20 23 26 29 32 34 34 32 28 28 28 26 27 26 25 24 24 25 25 25 26 27 27 29 31 32 33 33 31 30
9 7 7 7 7 6 5 5 5 6 7 10 12 15 16 18 20 21 21 22 23 25 24 23 22 22 21 20 19 20 20 21 21 22 24 27 27 28 30 30 30 29 29 30
17 17 17 17 15 15 14 12 9 7 6 6 8 9 8 8 9 10 14 13 13 15 17 19 19 18 19 20 21 20 21 22 23 24 24 26 27 26 26 27 27 29 31 32
27 27 26 24 22 23 23 21 19 17 14 14 12 11 8 6 5 6 5 9 12 14 16 17 19 20 20 20 20 20 21 22 23 23 23 23 23 24 24 26 28 31 31 32
33 32 30 30 26 23 22 26 23 21 18 17 13 11 9 6 2 1 3 8 10 13 15 15 16 17 17 19 20 21 21 22 22 22 21 21 23 25 27 28 29 30 32 33
31 32 28 23 21 25 24 23 18 17 14 12 10 8 5 1 2 3 5 8 10 13 17 18 18 18 20 21 22 23 22 22 21 21 23 24 26 29 30 32 33 34 33 33
31 30 27 24 25 22 20 16 13 14 12 9 8 6 5 6 6 7 9 11 14 15 16 17 19 22 23 23 23 22 22 23 24 26 28 29 30 31 33 34 35 34 34 33
29 26 22 20 18 17 15 12 10 9 7 5 4 5 7 7 8 10 12 14 16 17 19 20 21 23 24 24 24 25 26 28 30 31 33 34 34 35 35 35 34 33 33 33
Wind_Direction_500mb
237 192 159 179 199 204 207 225 210 252 241 239 233 219 219 226 211 207 212 214 216 215 214 214 213 214 214 215 214 213 213 215 217 216 216 217 220 222 222 223 227 230 237 239
243 235 219 214 212 216 219 232 236 250 260 127 235 243 213 227 216 210 216 222 220 217 217 217 217 217 218 219 218 218 219 221 220 218 220 222 225 227 226 229 231 236 242 242
241 207 226 263 238 220 224 229 225 235 244 197 244 242 231 232 223 219 223 223 218 218 219 221 222 222 222 222 223 223 225 225 223 223 224 228 230 230 232 235 236 242 245 247
246 136 216 246 211 220 228 238 226 245 255 209 237 244 253 249 240 230 226 220 219 220 220 222 224 226 228 229 232 229 230 228 227 227 228 231 233 237 238 237 241 247 248 254
231 225 261 277 183 165 189 244 231 236 248 250 232 234 251 244 239 238 228 223 220 217 215 218 224 227 230 230 230 232 231 230 229 229 231 234 237 239 239 240 245 247 252 259
187 232 237 280 272 205 116 252 172 213 237 236 162 225 250 234 228 226 224 209 199 190 193 194 208 218 236 237 232 233 231 232 229 231 233 239 241 242 243 246 248 250 255 263
224 234 253 228 232 151 162 250 313 245 244 174 203 231 258 216 196 192 180 178 183 192 208 229 228 232 232 231 231 232 229 227 227 230 235 238 240 240 242 245 248 252 259 264
219 239 242 183 81 172 229 338 316 284 238 192 202 187 191 181 175 181 187 190 196 207 209 205 203 207 214 219 222 222 221 220 221 225 228 227 228 231 235 241 248 253 257 260
191 207 184 181 179 197 205 250 210 280 224 195 167 164 169 179 186 184 189 189 179 181 178 177 178 182 188 191 199 204 209 216 220 219 217 220 230 238 242 245 250 254 257 262
125 207 224 217 224 190 161 129 101 46 233 199 201 182 170 169 170 171 173 175 175 171 169 165 162 165 172 188 200 211 217 222 222 223 226 233 239 242 247 251 255 260 264 267
273 244 304 252 220 196 174 174 222 212 206 200 197 182 179 175 174 170 166 165 166 164 164 167 175 183 193 204 215 223 230 230 229 231 235 240 244 248 252 257 261 263 264 263
214 180 149 199 212 207 212 198 192 180 148 172 199 201 189 179 170 166 165 167 168 171 179 186 195 203 211 219 227 232 236 238 239 241 244 248 252 255 259 262 265 266 265 265
188 181 198 211 233 210 215 216 208 188 166 189 180 186 178 172 170 172 175 179 179 185 196 206 213 220 224 231 238 246 249 248 246 247 249 253 257 260 262 263 265 265 266 270
219 189 205 218 37 212 221 223 200 175 163 169 172 168 177 181 183 190 193 192 198 206 216 225 231 236 240 244 247 251 256 258 259 257 255 255 258 260 261 260 260 264 270 277
162 193 246 201 194 188 206 215 224 234 211 182 166 164 178 192 203 207 208 214 221 230 235 239 245 250 251 252 253 256 259 259 257 255 254 255 256 256 258 263 268 271 273 276
122 132 130 132 110 113 125 132 133 166 183 187 194 202 209 213 218 219 220 225 233 239 244 248 252 253 252 253 256 257 256 256 255 253 252 253 255 259 265 270 273 278 285 291
165 138 116 108 112 123 123 130 139 151 169 189 208 223 231 234 234 232 231 232 235 240 244 248 251 252 252 253 253 253 253 250 249 247 247 252 259 265 269 274 281 287 293 296
130 145 148 152 135 146 154 162 181 203 213 220 224 228 232 234 236 235 233 234 236 238 244 250 250 248 246 245 247 247 245 243 244 249 256 259 263 267 275 282 288 292 293 295
163 175 176 183 187 187 195 207 221 233 240 248 254 252 248 244 243 241 239 238 240 244 247 246 245 244 244 245 244 242 243 247 251 255 258 263 271 277 282 286 288 289 292 297
193 212 215 218 223 226 236 245 247 244 246 244 247 246 244 241 239 237 235 235 237 240 239 236 235 235 237 238 238 242 247 248 250 257 265 271 276 280 281 283 286 290 295 300
112 121 143 157 163 165 183 196 229 242 234 229 226 226 223 223 224 225 226 229 231 229 226 227 226 224 227 231 239 242 246 253 264 271 274 275 278 282 286 289 291 293 293 294
101 101 102 103 106 107 103 99 98 102 119 143 161 172 173 188 203 216 218 222 227 226 222 221 224 227 230 234 236 242 254 265 269 271 277 281 284 286 287 288 290 290 292 294
100 98 95 94 92 92 96 97 95 91 95 98 105 103 106 119 155 171 202 206 206 208 211 214 217 223 229 241 253 256 259 261 265 268 271 276 279 283 286 289 292 293 295 297
101 104 103 98 96 103 102 94 93 92 87 87 84 84 82 86 107 206 229 214 213 216 222 231 244 255 259 258 257 259 261 264 268 272 275 278 282 285 287 289 291 292 295 297
99 97 98 105 102 90 89 87 88 89 82 74 71 68 66 56 266 200 211 225 231 239 246 251 256 261 262 264 267 267 268 269 270 273 276 279 280 282 285 288 290 291 292 296
101 95 91 90 88 84 77 74 68 70 62 49 38 20 351 330 315 295 281 270 265 264 265 267 267 268 266 265 265 266 269 272 275 278 278 280 282 283 283 283 286 288 292 295
98 95 92 91 89 83 79 70 56 54 53 36 2 331 310 295 285 281 277 274 272 270 269 269 268 267 268 269 270 272 273 275 277 279 280 282 282 282 283 285 286 289 292 295
Wind_Speed_850mb
38 9 12 14 26 40 46 61 29 58 49 39 28 24 36 37 39 54 67 78 88 92 96 99 104 102 98 96 91 86 82 77 72 64 59 56 52 49 46 44 42 40 38 36
37 31 19 14 24 48 51 51 51 59 65 13 33 39 34 55 59 69 75 84 88 87 90 97 102 103 102 100 94 89 84 80 74 66 63 59 55 53 50 48 48 46 43 40
38 22 15 16 71 41 37 41 44 51 75 17 33 31 38 55 67 79 84 85 87 90 89 88 91 96 101 96 91 88 85 83 76 70 66 62 59 57 55 55 52 50 49 45
24 14 24 29 12 52 57 58 46 49 57 18 38 64 79 74 73 79 82 79 79 79 79 80 79 79 76 78 80 82 86 83 78 74 68 65 61 58 57 56 54 54 52 48
13 25 18 33 11 18 28 57 54 58 59 61 41 25 30 54 71 75 75 75 70 67 63 61 59 56 55 61 61 70 77 80 77 73 68 63 63 61 60 55 56 56 51 49
11 16 26 13 1 4 11 42 30 46 52 47 30 20 39 53 44 53 46 46 48 46 42 39 39 43 46 56 59 62 65 64 66 62 57 58 58 55 52 53 52 50 50 48
35 23 10 9 9 6 18 14 7 5 30 27 20 39 28 36 45 47 51 50 46 42 34 35 42 47 56 54 51 45 48 51 51 52 52 48 47 48 49 50 50 50 50 49
17 13 21 14 3 17 5 7 11 8 10 32 34 20 31 54 54 47 45 45 42 39 39 37 36 37 42 44 38 39 39 41 44 44 43 42 42 44 47 49 50 49 51 51
14 9 9 33 11 16 5 2 2 2 6 23 27 28 38 46 45 43 36 36 34 36 39 36 34 33 35 32 34 36 38 40 40 40 39 37 39 41 44 45 49 52 56 57
4 5 4 12 13 17 15 12 8 5 4 18 24 24 28 36 40 42 40 38 36 34 35 38 35 31 27 27 29 33 34 35 38 42 41 38 38 41 44 48 52 55 59 62
7 6 7 22 29 25 18 7 7 9 12 19 20 24 29 35 38 38 38 37 35 36 34 31 28 27 27 28 29 32 35 40 46 47 46 43 43 44 46 48 51 56 59 57
9 18 8 8 44 35 34 22 14 11 12 11 14 20 28 36 40 41 41 41 39 35 31 29 29 32 34 33 33 35 38 42 49 53 50 49 48 48 51 55 58 59 58 56
8 26 24 10 12 44 40 30 15 10 3 6 15 20 32 41 40 38 39 37 34 30 30 30 31 34 36 36 35 36 37 39 45 51 54 55 55 56 56 55 54 48 44 44
9 19 18 13 1 21 34 26 15 8 8 14 19 29 32 32 33 34 36 37 35 32 31 31 33 35 36 37 38 38 38 40 42 45 51 55 55 53 49 43 38 37 41 45
13 16 3 10 10 9 21 19 16 14 15 24 25 21 19 21 25 31 36 38 37 35 35 34 35 37 38 38 37 37 39 41 43 44 46 45 42 38 35 34 35 39 42 42
17 16 16 16 19 17 15 15 12 14 21 23 20 17 19 24 29 34 39 42 41 38 37 37 39 40 39 37 36 38 40 43 42 39 36 33 31 31 32 35 37 39 41 45
19 16 18 19 18 18 16 15 15 14 14 14 15 19 22 25 32 37 41 42 42 41 39 39 38 39 38 37 37 37 36 35 33 30 29 29 30 32 34 35 36 38 40 42
16 16 13 13 15 17 14 10 9 9 11 13 15 19 23 26 30 35 40 41 39 37 35 36 37 38 37 35 33 32 30 29 28 27 27 29 30 31 32 33 35 36 37 38
6 8 9 9 9 9 9 9 9 11 13 14 17 19 22 24 25 27 31 34 35 36 36 35 36 34 32 31 29 28 27 26 26 26 27 28 29 30 32 33 33 35 36 35
3 5 6 7 8 9 10 10 11 12 13 14 16 18 20 23 26 29 32 34 34 32 28 28 28 26 27 26 25 24 24 25 25 25 26 27 27 29 31 32 33 33 31 30
9 7 7 7 7 6 5 5 5 6 7 10 12 15 16 18 20 21 21 22 23 25 24 23 22 22 21 20 19 20 20 21 21 22 24 27 27 28 30 30 30 29 29 30
17 17 17 17 15 15 14 12 9 7 6 6 8 9 8 8 9 10 14 13 13 15 17 19 19 18 19 20 21 20 21 22 23 24 24 26 27 26 26 27 27 29 31 32
27 27 26 24 22 23 23 21 19 17 14 14 12 11 8 6 5 6 5 9 12 14 16 17 19 20 20 20 20 20 21 22 23 23 23 23 23 24 24 26 28 31 31 32
33 32 30 30 26 23 22 26 23 21 18 17 13 11 9 6 2 1 3 8 10 13 15 15 16 17 17 19 20 21 21 22 22 22 21 21 23 25 27 28 29 30 32 33
31 32 28 23 21 25 24 23 18 17 14 12 10 8 5 1 2 3 5 8 10 13 17 18 18 18 20 21 22 23 22 22 21 21 23 24 26 29 30 32 33 34 33 33
31 30 27 24 25 22 20 16 13 14 12 9 8 6 5 6 6 7 9 11 14 15 16 17 19 22 23 23 23 22 22 23 24 26 28 29 30 31 33 34 35 34 34 33
29 26 22 20 18 17 15 12 10 9 7 5 4 5 7 7 8 10 12 14 16 17 19 20 21 23 24 24 24 25 26 28 30 31 33 34 34 35 35 35 34 33 33 33
Wind_Direction_850mb
237 192 159 179 199 204 207 225 210 252 241 239 233 219 219 226 211 207 212 214 216 215 214 214 213 214 214 215 214 213 213 215 217 216 216 217 220 222 222 223 227 230 237 239
243 235 219 214 212 216 219 232 236 250 260 127 235 243 213 227 216 210 216 222 220 217 217 217 217 217 218 219 218 218 219 221 220 218 220 222 225 227 226 229 231 236 242 242
241 207 226 263 238 220 224 229 225 235 244 197 244 242 231 232 223 219 223 223 218 218 219 221 222 222 222 222 223 223 225 225 223 223 224 228 230 230 232 235 236 242 245 247
246 136 216 246 211 220 228 238 226 245 255 209 237 244 253 249 240 230 226 220 219 220 220 222 224 226 228 229 232 229 230 228 227 227 228 231 233 237 238 237 241 247 248 254
231 225 261 277 183 165 189 244 231 236 248 250 232 234 251 244 239 238 228 223 220 217 215 218 224 227 230 230 230 232 231 230 229 229 231 234 237 239 239 240 245 247 252 259
187 232 237 280 272 205 116 252 172 213 237 236 162 225 250 234 228 226 224 209 199 190 193 194 208 218 236 237 232 233 231 232 229 231 233 239 241 242 243 246 248 250 255 263
224 234 253 228 232 151 162 250 313 245 244 174 203 231 258 216 196 192 180 178 183 192 208 229 228 232 232 231 231 232 229 227 227 230 235 238 240 240 242 245 248 252 259 264
219 239 242 183 81 172 229 338 316 284 238 192 202 187 191 181 175 181 187 190 196 207 209 205 203 207 214 219 222 222 221 220 221 225 228 227 228 231 235 241 248 253 257 260
191 207 184 181 179 197 205 250 210 280 224 195 167 164 169 179 186 184 189 189 179 181 178 177 178 182 188 191 199 204 209 216 220 219 217 220 230 238 242 245 250 254 257 262
125 207 224 217 224 190 161 129 101 46 233 199 201 182 170 169 170 171 173 175 175 171 169 165 162 165 172 188 200 211 217 222 222 223 226 233 239 242 247 251 255 260 264 267
273 244 304 252 220 196 174 174 222 212 206 200 197 182 179 175 174 170 166 165 166 164 164 167 175 183 193 204 215 223 230 230 229 231 235 240 244 248 252 257 261 263 264 263
214 180 149 199 212 207 212 198 192 180 148 172 199 201 189 179 170 166 165 167 168 171 179 186 195 203 211 219 227 232 236 238 239 241 244 248 252 255 259 262 265 266 265 265
188 181 198 211 233 210 215 216 208 188 166 189 180 186 178 172 170 172 175 179 179 185 196 206 213 220 224 231 238 246 249 248 246 247 249 253 257 260 262 263 265 265 266 270
219 189 205 218 37 212 221 223 200 175 163 169 172 168 177 181 183 190 193 192 198 206 216 225 231 236 240 244 247 251 256 258 259 257 255 255 258 260 261 260 260 264 270 277
162 193 246 201 194 188 206 215 224 234 211 182 166 164 178 192 203 207 208 214 221 230 235 239 245 250 251 252 253 256 259 259 257 255 254 255 256 256 258 263 268 271 273 276
122 132 130 132 110 113 125 132 133 166 183 187 194 202 209 213 218 219 220 225 233 239 244 248 252 253 252 253 256 257 256 256 255 253 252 253 255 259 265 270 273 278 285 291
165 138 116 108 112 123 123 130 139 151 169 189 208 223 231 234 234 232 231 232 235 240 244 248 251 252 252 253 253 253 253 250 249 247 247 252 259 265 269 274 281 287 293 296
130 145 148 152 135 146 154 162 181 203 213 220 224 228 232 234 236 235 233 234 236 238 244 250 250 248 246 245 247 247 245 243 244 249 256 259 263 267 275 282 288 292 293 295
163 175 176 183 187 187 195 207 221 233 240 248 254 252 248 244 243 241 239 238 240 244 247 246 245 244 244 245 244 242 243 247 251 255 258 263 271 277 282 286 288 289 292 297
193 212 215 218 223 226 236 245 247 244 246 244 247 246 244 241 239 237 235 235 237 240 239 236 235 235 237 238 238 242 247 248 250 257 265 271 276 280 281 283 286 290 295 300
112 121 143 157 163 165 183 196 229 242 234 229 226 226 223 223 224 225 226 229 231 229 226 227 226 224 227 231 239 242 246 253 264 271 274 275 278 282 286 289 291 293 293 294
101 101 102 103 106 107 103 99 98 102 119 143 161 172 173 188 203 216 218 222 227 226 222 221 224 227 230 234 236 242 254 265 269 271 277 281 284 286 287 288 290 290 292 294
100 98 95 94 92 92 96 97 95 91 95 98 105 103 106 119 155 171 202 206 206 208 211 214 217 223 229 241 253 256 259 261 265 268 271 276 279 283 286 289 292 293 295 297
101 104 103 98 96 103 102 94 93 92 87 87 84 84 82 86 107 206 229 214 213 216 222 231 244 255 259 258 257 259 261 264 268 272 275 278 282 285 287 289 291 292 295 297
99 97 98 105 102 90 89 87 88 89 82 74 71 68 66 56 266 200 211 225 231 239 246 251 256 261 262 264 267 267 268 269 270 273 276 279 280 282 285 288 290 291 292 296
101 95 91 90 88 84 77 74 68 70 62 49 38 20 351 330 315 295 281 270 265 264 265 267 267 268 266 265 265 266 269 272 275 278 278 280 282 283 283 283 286 288 292 295
98 95 92 91 89 83 79 70 56 54 53 36 2 331 310 295 285 281 277 274 272 270 269 269 268 267 268 269 270 272 273 275 277 279 280 282 282 282 283 285 286 289 292 295